Location: Byhalia Creek
(34.8270°N, 89.8040°W)
Time: 17:46:32
(UTC+00:00)

SL-8 Rocket - Pass Details

Date: 22 April 2026
Orbit: 957 x 988 km, 82.9° (Epoch: 9 May)

Event Time Altitude Azimuth Distance (km) Brightness Sun altitude
Rises 01:11:21 0° 179° (S) 3,653 6.8 -7.6°
Reaches altitude 10° 01:13:51 10° 178° (S) 2,714 6.1 -8.1°
Maximum altitude 01:20:03 76° 94° (E) 1,013 4.0 -9.3°
Drops below altitude 10° 01:26:20 10° 10° (N) 2,748 6.5 -10.5°
Sets 01:28:52 0° 9° (N) 3,702 7.2 -11.0°
